UZB614 UUWW-UZTT

Flight info

Callsign UZB614
Flight time N/A
Altitude 37000
Route TOGMO M56 BEKAS L163 MIKNO
Aircraft A20N/M-SDE2E3FGHIRWXY/LB1

Departure

Time N/A
Airport Vnukovo International Airport (UUWW)

Arrival

Time 2026-04-22 19:31
Airport Tashkent International Airport (UZTT)
Time Latitude Longitude Altitude Speed Heading
2026-04-22 19:08 42.46510 67.56950 36870 ft 449 kts 140°
2026-04-22 19:08 42.44419 67.60027 36870 ft 449 kts 140°
2026-04-22 19:09 42.40210 67.66220 36438 ft 442 kts 141°
2026-04-22 19:09 42.38164 67.69241 35812 ft 440 kts 141°
2026-04-22 19:09 42.36102 67.72282 35144 ft 438 kts 141°
2026-04-22 19:09 42.33364 67.76299 34129 ft 439 kts 141°
2026-04-22 19:10 42.31976 67.78332 33592 ft 440 kts 141°
2026-04-22 19:10 42.29920 67.81335 32787 ft 442 kts 141°
2026-04-22 19:10 42.27842 67.84367 31937 ft 446 kts 140°
2026-04-22 19:10 42.25725 67.87454 30939 ft 445 kts 140°
2026-04-22 19:11 42.23648 67.90482 29527 ft 447 kts 140°
2026-04-22 19:11 42.21540 67.93544 27739 ft 452 kts 139°
2026-04-22 19:11 42.19416 67.96622 25898 ft 457 kts 139°
2026-04-22 19:11 42.17314 67.99676 24606 ft 448 kts 138°
2026-04-22 19:12 42.15218 68.02731 23446 ft 437 kts 138°
2026-04-22 19:12 42.13184 68.05692 22224 ft 430 kts 138°
2026-04-22 19:12 42.11202 68.08572 21035 ft 422 kts 138°
2026-04-22 19:12 42.09236 68.11421 19852 ft 415 kts 138°
2026-04-22 19:13 42.07297 68.14223 18683 ft 408 kts 138°
2026-04-22 19:13 42.05398 68.16953 17523 ft 400 kts 139°
2026-04-22 19:13 42.03424 68.19500 16391 ft 391 kts 143°
2026-04-22 19:13 42.01374 68.21772 15253 ft 382 kts 148°
2026-04-22 19:14 41.99237 68.23847 14112 ft 375 kts 149°
2026-04-22 19:14 41.97133 68.25842 13129 ft 375 kts 149°
2026-04-22 19:14 41.95028 68.27835 12688 ft 366 kts 149°
2026-04-22 19:14 41.92997 68.29769 12474 ft 354 kts 150°
2026-04-22 19:15 41.91019 68.31650 12268 ft 342 kts 150°
2026-04-22 19:15 41.89117 68.33456 12072 ft 330 kts 150°
2026-04-22 19:15 41.87257 68.35210 11886 ft 320 kts 150°
2026-04-22 19:15 41.84898 68.37432 11648 ft 306 kts 150°
2026-04-22 19:16 41.83751 68.38515 11532 ft 300 kts 150°
2026-04-22 19:16 41.82058 68.40112 11316 ft 293 kts 150°
2026-04-22 19:16 41.79853 68.42190 10846 ft 290 kts 150°
2026-04-22 19:16 41.78217 68.43733 10490 ft 288 kts 150°
2026-04-22 19:17 41.77128 68.44759 10247 ft 287 kts 150°
2026-04-22 19:17 41.75483 68.46310 9867 ft 286 kts 150°
2026-04-22 19:17 41.73870 68.47830 9502 ft 285 kts 150°
2026-04-22 19:17 41.72264 68.49343 9141 ft 284 kts 150°
2026-04-22 19:18 41.70660 68.50854 8791 ft 282 kts 149°
2026-04-22 19:18 41.69060 68.52361 8426 ft 280 kts 149°
2026-04-22 19:18 41.67474 68.53855 8082 ft 278 kts 149°
2026-04-22 19:18 41.65893 68.55347 7977 ft 277 kts 149°
2026-04-22 19:19 41.64322 68.56823 7968 ft 279 kts 149°
2026-04-22 19:19 41.62737 68.58314 7966 ft 280 kts 149°
2026-04-22 19:19 41.61137 68.59815 7967 ft 280 kts 149°
2026-04-22 19:19 41.59542 68.61312 7965 ft 279 kts 149°
2026-04-22 19:20 41.57953 68.62801 7969 ft 278 kts 149°
2026-04-22 19:20 41.56387 68.64268 7838 ft 272 kts 149°
2026-04-22 19:20 41.54868 68.65710 7671 ft 263 kts 147°
2026-04-22 19:20 41.53446 68.67158 7504 ft 256 kts 147°
2026-04-22 19:21 41.52034 68.68620 7180 ft 255 kts 147°
2026-04-22 19:21 41.50648 68.70054 6830 ft 255 kts 147°
2026-04-22 19:21 41.49245 68.71502 6476 ft 254 kts 147°
2026-04-22 19:21 41.47847 68.72940 6157 ft 253 kts 146°
2026-04-22 19:22 41.46467 68.74362 5874 ft 250 kts 146°
2026-04-22 19:22 41.45095 68.75774 5558 ft 249 kts 146°
2026-04-22 19:22 41.43730 68.77181 5208 ft 248 kts 146°
2026-04-22 19:22 41.42359 68.78584 4922 ft 246 kts 146°
2026-04-22 19:23 41.41023 68.79956 4627 ft 245 kts 146°
2026-04-22 19:23 41.39232 68.81793 4212 ft 243 kts 146°
2026-04-22 19:23 41.38347 68.82699 4044 ft 240 kts 145°
2026-04-22 19:23 41.36583 68.84503 3980 ft 240 kts 145°
2026-04-22 19:24 41.35710 68.85397 3976 ft 239 kts 145°
2026-04-22 19:24 41.34369 68.86768 3975 ft 240 kts 145°
2026-04-22 19:24 41.33063 68.88103 3975 ft 240 kts 145°
2026-04-22 19:24 41.31726 68.89471 3975 ft 240 kts 145°
2026-04-22 19:25 41.30404 68.90820 3975 ft 241 kts 145°
2026-04-22 19:25 41.29084 68.92168 3976 ft 241 kts 145°
2026-04-22 19:25 41.27748 68.93530 3976 ft 241 kts 145°
2026-04-22 19:25 41.26414 68.94890 3975 ft 241 kts 145°
2026-04-22 19:26 41.25093 68.96236 3973 ft 241 kts 146°
2026-04-22 19:26 41.23758 68.97594 3972 ft 238 kts 145°
2026-04-22 19:26 41.22630 68.99096 3941 ft 228 kts 120°
2026-04-22 19:26 41.22274 69.01070 3942 ft 218 kts 86°
2026-04-22 19:27 41.22585 69.02982 3969 ft 202 kts 76°
2026-04-22 19:27 41.22947 69.04759 4038 ft 201 kts 78°
2026-04-22 19:27 41.23248 69.06557 4012 ft 200 kts 81°
2026-04-22 19:27 41.23576 69.08954 3901 ft 198 kts 84°
2026-04-22 19:28 41.23714 69.10156 3753 ft 198 kts 84°
2026-04-22 19:28 41.23907 69.11951 3486 ft 194 kts 86°
2026-04-22 19:28 41.24091 69.13696 3222 ft 185 kts 84°
2026-04-22 19:28 41.24268 69.15331 3005 ft 171 kts 85°
2026-04-22 19:29 41.24428 69.16814 2783 ft 157 kts 84°
2026-04-22 19:29 41.24577 69.18195 2556 ft 145 kts 84°
2026-04-22 19:29 41.24718 69.19503 2382 ft 143 kts 84°
2026-04-22 19:29 41.24895 69.21247 2119 ft 143 kts 83°
2026-04-22 19:30 41.24941 69.21695 2039 ft 143 kts 83°
2026-04-22 19:30 41.25183 69.23859 1761 ft 142 kts 81°
2026-04-22 19:30 41.25277 69.24712 1646 ft 141 kts 82°
2026-04-22 19:30 41.25423 69.26000 1462 ft 139 kts 81°
2026-04-22 19:31 41.25560 69.27195 1424 ft 116 kts 82°
2026-04-22 19:31 41.25648 69.28028 1424 ft 67 kts 81°
2026-04-22 19:31 41.25692 69.28436 1424 ft 32 kts 82°
2026-04-22 19:31 41.25728 69.28777 1424 ft 12 kts 82°
2026-04-22 19:32 41.25741 69.28852 1424 ft 12 kts 58°
2026-04-22 19:32 41.25818 69.28911 1424 ft 13 kts 22°
2026-04-22 19:32 41.25907 69.28950 1424 ft 13 kts
2026-04-22 19:32 41.25997 69.28909 1424 ft 14 kts 324°
2026-04-22 19:33 41.26071 69.28822 1424 ft 14 kts 317°
2026-04-22 19:33 41.26098 69.28790 1424 ft 0 kts 317°
2026-04-22 19:33 41.26107 69.28779 1424 ft 6 kts 317°
2026-04-22 19:34 41.26163 69.28710 1424 ft 13 kts 314°
2026-04-22 19:34 41.26186 69.28596 1424 ft 13 kts 273°
2026-04-22 19:34 41.26192 69.28467 1424 ft 14 kts 273°
2026-04-22 19:34 41.26186 69.28329 1424 ft 17 kts 262°
2026-04-22 19:35 41.26167 69.28155 1424 ft 19 kts 261°
2026-04-22 19:35 41.26147 69.27984 1424 ft 18 kts 261°
2026-04-22 19:35 41.26128 69.27811 1424 ft 18 kts 261°
2026-04-22 19:35 41.26109 69.27642 1424 ft 18 kts 261°
2026-04-22 19:36 41.26084 69.27419 1424 ft 18 kts 261°
2026-04-22 19:36 41.26072 69.27315 1424 ft 10 kts 261°
2026-04-22 19:36 41.26086 69.27221 1424 ft 11 kts 314°
2026-04-22 19:36 41.26146 69.27149 1424 ft 12 kts 318°
2026-04-22 19:37 41.26206 69.27079 1424 ft 9 kts 318°
2026-04-22 19:37 41.26257 69.27020 1424 ft 10 kts 317°
2026-04-22 19:37 41.26272 69.26947 1424 ft 5 kts 266°
2026-04-22 19:37 41.26270 69.26908 1424 ft 2 kts 265°
2026-04-22 19:38 41.26269 69.26903 1424 ft 0 kts 265°